Flag for Montenegro Weather past 2 weeks in Nikšić, Montenegro

Now
51 °F

Overcast.


Feels Like: 51 °F
Forecast: 53 / 64 °F
Wind: 1 mph from South

Location: Niksic


UV Index: 0 (Low)

Visibility: 9 mi


Pressure: 29.86 "Hg

Humidity: 99%

Dew point: 51 °F

Location of NikšićLocation

Historic Weather in Nikšić

°F

Nikšić temperature yesterday

Maximum temperature yesterday: 68 °F (at 12:00 PM)
Minimum temperature yesterday: 51 °F (at 11:00 PM)
Average temperature yesterday: 56 °F

Past Weeks' High & Low Weather Summary

 TemperatureHumidityPressure
High69 °F (Apr 23, 2:00 PM)100% (Apr 12, 7:00 AM)30.09 "Hg (Apr 12, 7:00 AM)
Low32 °F (Apr 12, 6:00 AM)28% (Apr 14, 1:00 PM)29.63 "Hg (Apr 18, 1:00 PM)
Average49 °F81%29.89 "Hg
* Reported Apr 10 2:00 AM — Apr 25 2:00 AM, Nikšić, Weather by CustomWeather, © 2014

Note: Actual official high and low records may vary slightly from our data, if they occured in-between our weather recording intervals... More about our weather records

Advertising

Historic Weather Conditions — Data for Previous 24 hours

 ConditionsComfort  
Time TempWeatherWind HumidityBarometerVisibility
2:00 AM
Apr 25
51 °FOvercast.1 mph99%29.86 "Hg9 mi
11:00 PM
Apr 24
51 °FPassing clouds.No wind99%29.86 "Hg12 mi
10:00 PM53 °FClear.3 mph99%29.85 "Hg12 mi
9:00 PM53 °FPassing clouds.2 mph99%29.85 "Hg12 mi
8:00 PM56 °FOvercast.2 mph99%29.83 "Hg12 mi
7:00 PM56 °FOvercast.2 mph99%29.83 "Hg12 mi
6:00 PM56 °FOvercast.2 mph100%29.83 "Hg12 mi
5:00 PM55 °FOvercast.1 mph100%N/A12 mi
4:00 PM53 °FRain. Overcast.3 mph99%29.83 "Hg12 mi
3:00 PM53 °FRain. Overcast.3 mph100%29.84 "Hg12 mi
2:00 PM55 °FRain. Overcast.5 mph82%29.83 "Hg12 mi
1:00 PM65 °FOvercast.10 mph73%29.79 "Hg12 mi
12:00 PM68 °FOvercast.1 mph73%29.80 "Hg12 mi
11:00 AM67 °FPartly sunny.2 mph83%29.80 "Hg12 mi
10:00 AM64 °FPartly sunny.2 mph90%29.81 "Hg12 mi
9:00 AM60 °FScattered clouds.2 mph99%29.81 "Hg12 mi
8:00 AM53 °FScattered clouds.2 mph99%29.81 "Hg12 mi
7:00 AM52 °FScattered clouds.2 mph100%29.82 "Hg12 mi
6:00 AM52 °FPartly sunny.3 mph100%29.82 "Hg12 mi
Weather by CustomWeather, © 2014

See weather overview